[[{"header":{"parameterUnit":"m.s-1","parameterCategory":1,"la1":30.2991,"la2":30.254,"lo1":-89.0895,"lo2":-89.0444,"dy":0.0017,"dx":0.0017,"nx":28,"ny":28,"refTime":"2025-07-10T03:00:00:Z","depth":0,"parameterNumber":2,"parameterNumberName":"U-component_of_WINDS"},"data":[0,0,0,0,0,0,0,0,0,0,0,0,0,0,0,0,0,0,0,0,0,0,0,0,0,0,0,0,0,0,0,0,0,0,0,0,0,0,0,0,0,0,0,0,0,0,0,0,0,0,0,0,0,0,0,0,0,0,3.4883,3.4883,0,3.4886,3.4886,3.4886,3.4787,3.4784,3.4781,3.4779,3.4788,3.479,3.4793,0,0,0,0,0,0,0,0,0,0,0,0,0,3.4797,3.4799,3.4883,3.4883,3.4883,3.4886,3.4886,3.4886,3.4787,3.4784,3.4781,3.4778,3.4787,3.479,3.4793,0,0,0,0,0,0,0,0,0,0,0,0,0,3.4821,3.48,3.4883,3.4834,3.4829,3.4886,3.4886,3.4886,3.4788,3.4784,3.478,3.4776,3.4786,3.479,3.4794,3.4899,0,0,3.4806,3.4808,0,0,0,0,0,0,0,0,3.482,3.4824,3.4841,3.4837,3.4832,3.4832,3.4859,3.4891,3.4789,3.4804,3.4779,3.4774,3.4806,3.4808,3.4818,3.4899,3.49,3.4807,3.4809,3.4811,3.4812,0,0,0,0,0,0,0,3.4818,3.4824,3.4884,3.4841,3.4836,3.4814,3.4813,3.4864,3.4828,3.4802,3.4795,3.4796,3.4803,3.4814,3.4817,3.49,3.4807,3.481,3.4813,3.4814,3.507,3.5074,0,0,0,0,0,0,3.4822,3.4823,3.4884,3.4884,3.4816,3.4818,3.4817,3.4836,3.4827,3.4821,3.48,3.4792,3.4809,3.4813,3.4817,3.494,3.4811,3.4815,3.4817,3.5066,3.5071,3.5076,0,0,0,0,0,0,3.4821,3.4829,3.4884,3.4852,3.4857,3.4824,3.4846,3.4838,3.4849,3.4825,3.4818,3.4817,3.4806,3.4811,3.4879,3.4939,3.4816,3.482,3.506,3.5067,3.5073,3.5187,0,0,0,0,0,0,3.4819,3.4829,3.4867,3.4853,3.4859,3.4944,3.485,3.4841,3.4856,3.4845,3.484,3.4835,3.4803,3.4874,3.4883,3.4942,3.4823,3.5055,3.5063,3.5071,3.5177,3.5196,3.5212,0,0,0,0,0,3.4816,3.49,3.4869,3.4877,3.4905,3.4948,3.4951,3.4912,3.4861,3.49,3.4885,3.4835,3.4931,3.4882,3.4892,3.4953,3.5051,3.5061,3.5071,3.517,3.5193,3.5212,0,0,0,0,0,0,3.4923,3.4897,3.4863,3.4944,3.4949,3.4931,3.4978,3.4937,3.4958,3.4947,3.4899,3.4899,3.4975,3.4971,3.4916,3.5055,3.4982,3.4995,3.5054,3.5076,3.5093,3.5092,3.4827,0,0,0,0,0,3.4955,3.499,3.4966,3.504,3.5044,3.5012,3.5028,3.4998,3.5001,3.5003,3.4993,3.5,3.5032,3.5054,3.5082,3.5177,3.5175,3.5224,3.5242,3.5256,3.5267,3.5319,3.534,3.5108,3.5108,3.5107,0,0,3.5023,3.5014,3.5039,3.5061,3.5061,3.51,3.5014,3.5058,3.5087,3.5011,3.5073,3.5067,3.5072,3.5154,3.519,3.5153,3.5331,3.5269,3.528,3.5283,3.5331,3.5353,3.5373,3.5114,3.5113,3.5112,0,0,3.5167,3.5163,3.5224,3.5226,3.5227,3.5205,3.522,3.5209,3.5201,3.5263,3.5207,3.5242,3.5297,3.5303,3.5314,3.5463,3.5419,3.5474,3.5565,3.5615,3.5634,3.565,3.5703,3.5723,3.5485,3.5485,3.5485,0,3.5252,3.5306,3.5262,3.531,3.5322,3.5254,3.5317,3.5321,3.5332,3.5344,3.5302,3.5371,3.5369,3.5453,3.5489,3.55,3.5517,3.5473,3.5634,3.565,3.5664,3.5715,3.5735,3.5492,3.5491,3.549,3.549,0,3.5411,3.545,3.55,3.5511,3.5529,3.5585,3.555,3.5575,3.5543,3.5526,3.5592,3.5588,3.5615,3.5632,3.5602,3.5712,3.5689,3.5642,3.5568,3.5694,3.5741,3.576,3.5501,3.5499,3.5497,3.5495,0,0,3.562,3.5606,3.5625,3.563,3.5627,3.5657,3.5711,3.5735,3.5757,3.5768,3.5813,3.5863,3.5819,3.5831,3.5802,3.5847,3.5966,3.5794,3.5793,3.5826,3.6088,3.6123,3.6146,3.5937,3.594,3.5943,3.6087,0,3.576,3.5848,3.581,3.5904,3.594,3.5877,3.5924,3.5929,3.5915,3.5946,3.5932,3.5967,3.5907,3.5914,3.5955,3.5942,3.6018,3.5932,3.598,3.5982,3.5979,3.617,3.6207,3.6343,3.6105,3.6108,3.6111,0,3.5934,3.595,3.6047,3.6038,3.6052,3.6095,3.6115,3.6144,3.615,3.6137,3.6151,3.6113,3.6167,3.6095,3.617,3.6113,3.6131,3.6128,3.6132,3.6134,3.6053,3.6178,3.6385,3.6406,3.6139,3.6137,3.6135,0,3.6077,3.6124,3.6187,3.6193,3.6185,3.6217,3.6215,3.6216,3.6234,3.6252,3.6263,3.6289,3.6303,3.6325,3.6295,3.6245,3.6376,3.63,3.6368,3.6369,3.6398,3.6396,3.6611,3.6411,3.641,3.641,3.641,0,3.6236,3.6298,3.6251,3.6291,3.6359,3.6316,3.6385,3.6377,3.6379,3.6417,3.6365,3.6403,3.6361,3.6396,3.6373,3.644,3.6447,3.644,3.6433,3.6444,3.6445,3.6454,3.6444,3.6415,3.6414,3.6413,3.6412,0,3.6407,3.6378,3.6443,3.643,3.6429,3.6479,3.6469,3.6506,3.649,3.6539,3.6548,3.6523,3.6561,3.6534,3.6572,3.6557,3.6645,3.6625,3.6642,3.6637,3.6706,3.67,3.6934,3.6963,3.6745,3.6747,3.6748,0,3.651,3.6555,3.6547,3.6568,3.6569,3.6604,3.6622,3.6583,3.6604,3.6614,3.665,3.6684,3.6708,3.6772,3.6759,3.6788,3.6769,3.6849,3.6773,3.6783,3.677,3.6767,3.6772,3.6864,3.6867,3.6869,3.687,0,3.6696,3.668,3.6705,3.6728,3.675,3.6766,3.6778,3.6799,3.6759,3.6786,3.6823,3.6842,3.6881,3.6915,3.694,3.6941,3.69,3.6895,3.6912,3.6923,3.6931,3.6928,3.6684,3.6889,3.6887,3.6886,3.6885,3.6884,3.6835,3.6873,3.6874,3.6905,3.691,3.6923,3.6957,3.6945,3.6974,3.7001,3.6978,3.7023,3.7029,3.7058,3.7064,3.71,3.7068,3.7093,3.7099,3.7106,3.7115,3.6926,3.7105,3.7104,3.7104,3.7103,3.7103,0,3.7019,3.7016,3.7045,3.7063,3.7089,3.7047,3.7059,3.7083,3.7123,3.7131,3.7156,3.72,3.7234,3.7224,3.7254,3.7285,3.7268,3.7295,3.7292,3.7293,3.7143,3.7125,3.7308,3.7308,3.7308,3.7308,3.7308,3.7308,3.7117,3.7179,3.7164,3.7229,3.7226,3.7269,3.7279,3.7291,3.7298,3.7348,3.7375,3.7368,3.737,3.74,3.743,3.7426,3.744,3.7474,3.7464,3.7323,3.7303,3.7284,3.7266,3.7477,3.7477,3.761,3.7612,3.7613]},{"header":{"parameterUnit":"m.s-1","parameterCategory":1,"la1":30.2991,"la2":30.254,"lo1":-89.0895,"lo2":-89.0444,"dy":0.0017,"dx":0.0017,"nx":28,"ny":28,"refTime":"2025-07-10T03:00:00:Z","depth":0,"parameterNumber":3,"parameterNumberName":"V-component_of_WINDS"},"data":[0,0,0,0,0,0,0,0,0,0,0,0,0,0,0,0,0,0,0,0,0,0,0,0,0,0,0,0,0,0,0,0,0,0,0,0,0,0,0,0,0,0,0,0,0,0,0,0,0,0,0,0,0,0,0,0,0,0,0.2419,0.2418,0,0.2318,0.2317,0.2316,0.2218,0.2217,0.2216,0.2215,0.211,0.2108,0.2107,0,0,0,0,0,0,0,0,0,0,0,0,0,0.2526,0.2524,0.2419,0.2418,0.2417,0.2318,0.2317,0.2315,0.2218,0.2217,0.2215,0.2214,0.2111,0.2109,0.2107,0,0,0,0,0,0,0,0,0,0,0,0,0,0.2458,0.2524,0.2419,0.2356,0.235,0.2318,0.2317,0.2315,0.2219,0.2217,0.2215,0.2213,0.2111,0.2109,0.2106,0.2129,0,0,0.2099,0.2098,0,0,0,0,0,0,0,0,0.2462,0.2454,0.2367,0.2361,0.2353,0.2279,0.2316,0.2252,0.2219,0.2269,0.2215,0.2212,0.2168,0.216,0.2145,0.2124,0.2119,0.2099,0.2097,0.2096,0.2095,0,0,0,0,0,0,0,0.2467,0.2458,0.2379,0.2366,0.2357,0.2332,0.2321,0.2303,0.223,0.2264,0.2257,0.2246,0.2163,0.2148,0.2142,0.2118,0.2099,0.2097,0.2095,0.2094,0.2106,0.2107,0,0,0,0,0,0,0.2481,0.2462,0.2382,0.2376,0.2404,0.2332,0.2319,0.2305,0.223,0.2216,0.2248,0.2242,0.2153,0.2145,0.2138,0.2157,0.2096,0.2094,0.2093,0.2104,0.2106,0.2108,0,0,0,0,0,0,0.2484,0.2475,0.2386,0.2417,0.2404,0.2332,0.2317,0.2304,0.2288,0.2217,0.2204,0.2246,0.2151,0.2142,0.2131,0.2152,0.2093,0.2091,0.2102,0.2105,0.2107,0.2197,0,0,0,0,0,0,0.2487,0.2476,0.2485,0.2418,0.2403,0.2382,0.2318,0.2303,0.2284,0.2276,0.2212,0.2199,0.2149,0.2135,0.2129,0.2148,0.2089,0.21,0.2103,0.2106,0.2192,0.2202,0.2211,0,0,0,0,0,0.2491,0.2515,0.2486,0.2477,0.2412,0.2384,0.2375,0.2317,0.2286,0.2294,0.2248,0.2201,0.2151,0.2135,0.2127,0.2145,0.2098,0.2102,0.2106,0.2187,0.22,0.2211,0,0,0,0,0,0,0.2586,0.2505,0.2472,0.2475,0.2437,0.2367,0.2375,0.2332,0.2302,0.2295,0.2224,0.2211,0.2207,0.2175,0.2159,0.2161,0.2118,0.2121,0.2183,0.2194,0.2204,0.2211,0.2087,0,0,0,0,0,0.2608,0.2592,0.2521,0.253,0.2513,0.2447,0.2433,0.2391,0.2349,0.2332,0.2286,0.2246,0.2221,0.2206,0.2179,0.2186,0.217,0.2195,0.2205,0.2213,0.2216,0.2215,0.2224,0.2121,0.2121,0.2121,0,0,0.2651,0.2605,0.2599,0.2548,0.2514,0.2498,0.2435,0.2421,0.2408,0.233,0.2317,0.2281,0.2232,0.223,0.2227,0.2203,0.2241,0.2218,0.2226,0.2223,0.222,0.223,0.2238,0.2124,0.2123,0.2123,0,0,0.2722,0.2687,0.2689,0.2656,0.2604,0.256,0.2561,0.2497,0.247,0.2456,0.2396,0.2379,0.2338,0.2305,0.2282,0.2339,0.2294,0.2332,0.2383,0.2383,0.2391,0.2397,0.2415,0.2423,0.2335,0.2335,0.2335,0,0.2783,0.2758,0.2695,0.2685,0.2663,0.2591,0.2592,0.2563,0.2505,0.2491,0.2466,0.2411,0.2373,0.2361,0.2374,0.2359,0.2356,0.2339,0.2395,0.2401,0.2406,0.2422,0.243,0.234,0.2339,0.2339,0.2338,0,0.2833,0.2817,0.2824,0.277,0.2749,0.2745,0.2681,0.2667,0.2627,0.2585,0.257,0.2521,0.2482,0.2476,0.2438,0.2458,0.2444,0.2408,0.2363,0.2422,0.2436,0.2442,0.2347,0.2345,0.2344,0.2343,0,0,0.2962,0.2872,0.2876,0.2849,0.2787,0.2772,0.2763,0.2725,0.2713,0.2676,0.2665,0.2631,0.2596,0.2571,0.2527,0.2527,0.2572,0.249,0.2488,0.2505,0.2589,0.2616,0.2624,0.2542,0.2543,0.2544,0.2592,0,0.3021,0.3001,0.2944,0.2942,0.2924,0.2855,0.2846,0.2807,0.2767,0.2745,0.2701,0.2677,0.2634,0.2617,0.2615,0.2567,0.2588,0.2563,0.253,0.253,0.2543,0.2632,0.266,0.2708,0.2597,0.2598,0.2599,0,0.3087,0.3054,0.3049,0.2985,0.2975,0.297,0.2928,0.2909,0.2862,0.2832,0.2804,0.2755,0.274,0.2698,0.2676,0.266,0.2643,0.2618,0.2618,0.2612,0.2567,0.2626,0.2722,0.2729,0.2607,0.2607,0.2606,0,0.3179,0.3132,0.3123,0.3103,0.3029,0.3025,0.2994,0.2945,0.2925,0.2889,0.2874,0.2837,0.2817,0.2788,0.273,0.2706,0.2713,0.2668,0.2687,0.2688,0.2691,0.2691,0.2784,0.2683,0.2683,0.2683,0.2682,0,0.325,0.3249,0.3163,0.3157,0.3154,0.3087,0.3086,0.3048,0.3004,0.2988,0.2927,0.2913,0.2838,0.2815,0.2769,0.2756,0.2748,0.2722,0.271,0.2727,0.273,0.2714,0.2708,0.2684,0.2684,0.2684,0.2683,0,0.3351,0.3293,0.3278,0.3209,0.3191,0.3192,0.3131,0.3122,0.3079,0.3059,0.3051,0.2982,0.2952,0.2891,0.2845,0.2813,0.281,0.2789,0.2826,0.2818,0.284,0.2838,0.2925,0.2932,0.2829,0.283,0.2831,0,0.3399,0.3397,0.3327,0.3312,0.3283,0.3261,0.3239,0.3174,0.3154,0.3099,0.3096,0.3061,0.3029,0.2984,0.2929,0.2892,0.2869,0.2902,0.2863,0.2879,0.2867,0.2867,0.2865,0.291,0.2911,0.2913,0.2914,0,0.349,0.3461,0.3434,0.3396,0.3372,0.3339,0.3302,0.3293,0.3219,0.3199,0.3168,0.3143,0.3095,0.306,0.3015,0.2981,0.2934,0.2926,0.2928,0.2945,0.2966,0.2953,0.2848,0.2924,0.2923,0.2923,0.2922,0.2922,0.3565,0.3559,0.3508,0.3478,0.3444,0.3411,0.3398,0.3352,0.3325,0.3281,0.3244,0.3215,0.3165,0.3099,0.3068,0.3043,0.3021,0.3025,0.3025,0.3027,0.3033,0.2971,0.3035,0.3035,0.3034,0.3034,0.3034,0,0.365,0.3614,0.3588,0.3538,0.3515,0.3473,0.343,0.3413,0.3388,0.3346,0.3316,0.3278,0.3244,0.3186,0.3146,0.3137,0.3115,0.3129,0.3128,0.312,0.3056,0.3058,0.3148,0.3148,0.3148,0.3148,0.3148,0.3148,0.3692,0.3679,0.3644,0.3612,0.3576,0.3547,0.3526,0.3494,0.346,0.3421,0.3392,0.3354,0.3305,0.3261,0.3227,0.321,0.3198,0.3218,0.3195,0.3136,0.3125,0.3115,0.3116,0.3217,0.3217,0.3261,0.3261,0.3262]}]]